Total_Precipitation_Accumulation
1.91 2.20 1.79 1.08 0.89 0.83 0.69 0.61 0.53 0.53 0.53 0.62 0.64 0.69 0.74 0.72 0.68 0.74 0.84 0.90 0.93 0.95 1.04 1.33 1.75 2.04 2.45 2.88 3.04 3.09 3.01 3.17 3.46 3.40 3.19 2.92 2.61 2.38 2.16 2.02 1.91 1.79 1.70 1.61
1.87 1.59 0.96 0.74 0.81 0.88 0.87 0.79 0.62 0.58 0.54 0.67 0.66 0.69 0.67 0.67 0.65 0.66 0.74 0.81 0.84 0.83 0.95 1.24 1.53 1.84 2.07 2.64 2.96 3.00 3.08 3.19 3.37 3.32 3.21 3.12 2.97 2.73 2.49 2.32 2.04 1.87 1.75 1.66
1.38 0.97 0.78 0.97 1.06 1.02 0.95 0.82 0.64 0.66 0.73 0.72 0.69 0.75 0.62 0.58 0.57 0.57 0.68 0.75 0.76 0.77 0.91 1.10 1.30 1.57 1.72 2.10 2.55 2.75 2.79 3.00 3.16 3.37 3.65 3.64 3.46 3.07 2.60 2.31 2.15 1.98 1.95 1.85
1.15 0.79 0.94 1.22 1.20 1.02 0.95 0.63 0.64 0.69 0.88 0.93 0.75 0.96 0.67 0.56 0.55 0.55 0.65 0.72 0.74 0.75 0.85 1.01 1.16 1.27 1.46 1.70 2.10 2.48 2.67 2.80 2.85 2.98 3.29 3.43 3.29 2.89 2.50 2.26 2.25 2.26 2.16 2.12
1.17 0.84 1.02 1.30 1.07 0.93 0.85 0.59 0.70 0.80 0.95 0.98 0.69 0.84 0.73 0.57 0.61 0.61 0.65 0.72 0.75 0.80 0.90 1.00 1.07 1.08 1.20 1.44 1.81 2.16 2.44 2.65 2.67 2.62 2.77 3.04 3.18 3.07 2.87 2.61 2.45 2.39 2.30 2.17
0.88 0.85 1.09 1.16 0.95 0.92 0.90 0.95 1.09 1.21 1.55 1.56 0.69 0.67 0.70 0.68 0.75 0.67 0.65 0.74 0.80 0.90 0.97 0.99 1.02 1.03 1.08 1.23 1.49 1.80 2.08 2.41 2.58 2.52 2.59 2.70 2.78 2.92 2.88 2.61 2.53 2.44 2.46 2.35
1.13 1.09 1.07 1.16 1.40 1.34 1.39 1.91 2.46 2.45 2.23 1.32 0.43 0.50 0.74 0.66 0.68 0.68 0.69 0.74 0.78 0.81 0.88 0.89 0.89 0.92 1.03 1.15 1.29 1.51 1.64 1.92 2.21 2.34 2.38 2.44 2.51 2.60 2.71 2.64 2.54 2.48 2.36 2.29
1.27 1.32 1.02 1.13 1.54 1.61 1.43 1.71 1.91 1.68 1.12 0.63 0.38 0.58 0.72 0.60 0.58 0.60 0.63 0.69 0.79 0.86 0.90 0.91 0.89 0.93 1.06 1.12 1.20 1.33 1.45 1.58 1.84 2.06 2.09 2.13 2.28 2.35 2.35 2.41 2.37 2.32 2.26 2.19
1.05 1.05 0.80 0.87 1.07 1.24 1.36 1.29 1.04 1.32 0.95 0.71 0.58 0.54 0.54 0.45 0.49 0.52 0.53 0.58 0.72 0.82 0.85 0.91 0.94 0.98 1.03 1.07 1.13 1.23 1.32 1.35 1.49 1.75 1.87 1.94 2.00 2.01 1.94 1.96 1.97 1.99 2.02 2.04
1.02 1.08 0.85 0.88 1.15 1.26 1.20 1.07 1.17 1.61 1.38 1.00 0.61 0.50 0.67 0.59 0.56 0.55 0.56 0.58 0.67 0.77 0.84 0.91 0.95 0.92 0.92 0.95 1.04 1.15 1.18 1.18 1.23 1.39 1.52 1.68 1.76 1.75 1.76 1.73 1.67 1.65 1.64 1.69
0.86 1.13 1.12 1.07 1.26 1.15 1.02 1.19 1.29 1.29 1.08 1.10 0.79 0.69 0.69 0.63 0.61 0.61 0.67 0.67 0.71 0.75 0.86 0.94 0.98 0.93 0.90 0.93 0.99 1.08 1.07 1.07 1.10 1.19 1.26 1.34 1.47 1.54 1.57 1.53 1.41 1.40 1.37 1.36
0.71 1.02 1.14 0.91 0.71 0.67 0.81 0.91 1.09 1.43 1.10 0.85 0.83 0.72 0.54 0.54 0.57 0.60 0.70 0.71 0.70 0.71 0.78 0.85 0.92 0.91 0.92 0.96 0.99 1.05 1.03 1.04 1.04 1.08 1.11 1.15 1.24 1.38 1.42 1.44 1.34 1.24 1.25 1.20
0.94 1.15 1.24 1.07 0.92 0.81 0.83 0.73 0.86 1.13 1.28 0.98 0.93 0.75 0.51 0.49 0.52 0.59 0.68 0.71 0.70 0.69 0.71 0.73 0.77 0.83 0.87 0.92 0.96 1.03 1.01 0.95 0.94 0.96 0.96 1.03 1.13 1.22 1.26 1.26 1.28 1.20 1.20 1.12
1.14 1.10 1.05 1.07 0.93 0.84 0.78 0.64 0.75 1.30 1.56 0.94 0.71 0.66 0.56 0.57 0.59 0.62 0.66 0.68 0.66 0.65 0.61 0.61 0.66 0.71 0.76 0.81 0.88 0.90 0.93 0.92 0.92 0.91 0.88 0.91 0.99 1.13 1.17 1.11 1.13 1.13 1.17 1.16
0.86 0.95 0.68 0.57 0.44 0.48 0.56 0.60 0.69 0.99 0.94 0.91 0.62 0.54 0.62 0.64 0.67 0.68 0.63 0.60 0.55 0.54 0.53 0.55 0.58 0.60 0.65 0.68 0.72 0.77 0.81 0.84 0.88 0.89 0.87 0.86 0.88 0.98 1.04 0.99 0.99 1.01 1.04 1.14
0.55 0.73 0.61 0.54 0.37 0.40 0.50 0.51 0.55 0.64 0.69 0.71 0.54 0.58 0.56 0.57 0.53 0.52 0.49 0.46 0.45 0.47 0.50 0.49 0.50 0.51 0.51 0.53 0.59 0.64 0.70 0.75 0.82 0.84 0.86 0.84 0.83 0.88 0.98 0.96 0.94 0.95 1.00 1.09
0.47 0.59 0.74 0.61 0.39 0.50 0.66 0.62 0.63 0.68 0.70 0.71 0.79 0.72 0.52 0.48 0.48 0.47 0.45 0.40 0.39 0.39 0.40 0.41 0.43 0.45 0.45 0.45 0.47 0.53 0.58 0.62 0.71 0.78 0.82 0.84 0.87 0.91 0.96 0.97 0.97 1.02 1.07 1.14
0.43 0.55 0.86 0.71 0.49 0.66 0.64 0.47 0.52 0.59 0.63 0.61 0.65 0.59 0.52 0.52 0.51 0.46 0.43 0.40 0.35 0.33 0.36 0.39 0.40 0.41 0.40 0.40 0.39 0.42 0.48 0.53 0.60 0.67 0.76 0.79 0.83 0.86 0.88 0.95 0.98 1.03 1.08 1.14
0.31 0.62 1.00 0.83 0.59 0.44 0.37 0.35 0.53 0.62 0.66 0.59 0.57 0.53 0.50 0.44 0.38 0.39 0.38 0.38 0.38 0.36 0.37 0.37 0.37 0.38 0.38 0.35 0.35 0.39 0.46 0.50 0.53 0.62 0.74 0.80 0.86 0.88 0.91 0.98 0.99 1.01 1.08 1.10
0.28 0.52 0.99 0.87 0.72 0.51 0.44 0.29 0.32 0.47 0.70 0.47 0.47 0.50 0.49 0.44 0.52 0.53 0.45 0.41 0.38 0.34 0.33 0.34 0.33 0.33 0.36 0.39 0.41 0.44 0.50 0.54 0.56 0.62 0.71 0.78 0.87 0.97 1.01 1.02 1.01 0.98 1.01 1.08
0.44 0.64 0.81 0.69 0.66 0.44 0.36 0.24 0.21 0.61 0.84 0.49 0.47 0.49 0.48 0.54 0.64 0.58 0.49 0.43 0.39 0.38 0.36 0.34 0.33 0.35 0.43 0.49 0.50 0.52 0.57 0.63 0.65 0.67 0.72 0.75 0.79 0.86 0.91 0.92 0.93 0.94 0.93 0.93
0.42 0.49 0.47 0.47 0.63 0.54 0.33 0.27 0.52 0.72 0.49 0.41 0.39 0.42 0.44 0.48 0.46 0.46 0.47 0.44 0.39 0.42 0.38 0.34 0.34 0.37 0.39 0.47 0.53 0.54 0.58 0.61 0.62 0.64 0.71 0.77 0.77 0.79 0.81 0.83 0.86 0.89 0.87 0.84
0.40 0.50 0.54 0.54 0.64 0.58 0.46 0.49 0.52 0.43 0.38 0.35 0.36 0.38 0.36 0.39 0.40 0.41 0.43 0.40 0.37 0.39 0.38 0.34 0.32 0.33 0.34 0.38 0.45 0.54 0.57 0.59 0.60 0.62 0.68 0.74 0.74 0.75 0.79 0.78 0.80 0.80 0.78 0.74
0.32 0.24 0.33 0.40 0.41 0.38 0.36 0.33 0.34 0.34 0.35 0.32 0.31 0.30 0.28 0.32 0.34 0.35 0.36 0.36 0.34 0.33 0.34 0.32 0.30 0.31 0.34 0.36 0.38 0.44 0.50 0.53 0.58 0.60 0.62 0.66 0.70 0.70 0.69 0.70 0.74 0.76 0.77 0.74
0.32 0.25 0.27 0.35 0.33 0.29 0.29 0.29 0.30 0.27 0.23 0.20 0.18 0.20 0.24 0.28 0.30 0.33 0.35 0.36 0.36 0.36 0.34 0.34 0.33 0.32 0.34 0.34 0.35 0.36 0.39 0.44 0.50 0.55 0.57 0.57 0.59 0.63 0.65 0.65 0.69 0.74 0.75 0.79
0.36 0.37 0.41 0.44 0.34 0.37 0.35 0.26 0.21 0.18 0.17 0.16 0.15 0.15 0.17 0.21 0.24 0.23 0.26 0.30 0.35 0.35 0.33 0.32 0.32 0.31 0.33 0.33 0.36 0.37 0.38 0.41 0.45 0.48 0.50 0.52 0.54 0.56 0.60 0.61 0.62 0.68 0.71 0.77